Main page
METAR-TAF:

METAR-TAF

Airports :

Apalachicola Regional Airport

Apalachicola, Florida, United States

latitude: 29-43-37N, longitude: 085-01-29W, elevation: 20 ft

Current weather observation

The report was made 13 minutes ago, at 16:53 UTC
Wind 8 mph from the South
Temperature 75°F
Humidity 74%
Pressure 30.21 in. Hg
Visibility: 10 miles

METAR: KAAF 251653Z AUTO 19007KT 10SM 24/19 A3021 RMK AO2 SLP230 T02390194 $

Time: 12:06 (17:06 UTC)


TAF: missing

Weather observations and forecasts of more than 4000 airports (METAR and TAF reports).

The available stations are represented by yellow and red dots on the map.

Hover mouse over dot to see the name of the station.

Then click to see weather observations and forecasts.

To change the map : click on the green buttons with a black cross to zoom in, on the green button with a dash to zoom out, or on the green arrows for adjacent maps.


METAR-TAF: